Theta_e
320 321 322 321 319 320 320 317 317 316 316 317 316 316 315 316 318 317 318 317 318 321 319 319 320 320 319 319 318 319 319 321 323 321 320 320 320 322 323 323 329 333 336 336
314 319 318 319 320 318 317 317 316 315 316 315 314 314 313 313 315 317 316 316 316 313 310 310 311 311 311 310 312 313 316 319 321 323 323 323 324 322 321 321 326 333 332 335
315 315 315 317 315 316 316 316 316 315 313 313 313 313 315 314 315 313 312 310 306 304 304 305 305 305 306 305 304 305 305 312 317 319 323 323 323 325 327 323 328 332 331 334
313 313 312 312 312 313 314 313 312 312 311 312 311 313 311 310 310 305 303 303 303 303 303 303 303 303 302 302 302 301 302 303 307 314 318 321 321 324 327 325 323 330 334 331
311 312 312 312 310 310 312 309 310 311 310 309 310 309 308 308 309 304 301 302 303 304 304 304 304 304 305 304 304 304 302 301 302 306 313 318 320 323 326 328 323 324 332 330
310 312 309 309 309 307 308 307 307 308 309 310 310 308 307 309 308 304 304 306 305 305 305 306 307 309 306 304 304 305 305 303 302 302 306 314 318 322 325 329 332 329 331 331
309 310 308 308 307 306 306 305 306 306 309 309 307 307 307 305 305 305 305 303 304 304 305 305 304 305 306 310 309 304 304 305 302 302 304 308 318 321 326 329 330 333 330 330
308 310 309 308 306 306 305 305 305 309 308 308 306 307 308 303 302 303 304 304 304 304 305 305 305 305 304 304 304 302 304 305 302 302 304 307 318 321 324 327 329 331 329 328
307 308 307 308 307 306 306 305 305 305 306 305 306 306 308 306 304 304 304 304 304 304 303 304 303 302 302 303 304 305 305 304 302 302 305 308 318 320 323 324 327 328 327 328
306 307 307 308 307 306 305 304 305 305 308 309 305 306 309 308 306 305 303 303 303 304 304 303 302 303 304 304 304 304 303 303 302 307 309 311 316 320 322 324 324 326 327 326
304 305 306 306 306 305 304 303 304 302 306 309 308 305 308 306 304 303 301 301 302 303 302 302 302 304 304 304 304 304 305 304 308 311 311 311 315 320 321 323 322 324 325 325
305 303 304 305 304 304 303 303 303 304 302 303 303 303 308 303 303 303 300 301 302 302 302 302 301 303 304 305 304 303 303 304 304 306 309 310 314 318 317 319 321 324 325 322
305 301 300 301 298 299 302 303 304 300 296 302 303 302 301 303 305 305 301 301 302 302 302 302 301 300 301 304 304 303 303 302 304 305 305 307 311 318 316 314 320 322 324 321
305 302 301 303 301 298 302 302 302 300 302 300 302 302 302 303 303 303 303 300 302 302 302 302 301 300 301 303 303 301 300 301 301 303 305 304 308 317 316 321 320 325 324 322
303 303 301 301 302 302 302 302 302 300 300 302 302 302 302 302 301 300 300 300 302 302 301 302 301 300 303 303 303 301 300 300 300 301 302 307 309 314 316 315 322 324 323 321
301 301 302 302 301 301 301 301 302 301 299 301 302 302 302 302 301 300 300 301 302 301 301 301 301 300 300 302 302 301 300 301 300 300 302 307 311 314 315 315 319 323 323 323
298 300 301 301 299 300 300 300 299 296 298 298 295 296 295 299 300 300 301 302 302 301 301 300 301 300 300 300 300 301 301 301 300 300 302 306 311 314 318 314 316 323 324 323
298 297 301 301 300 300 298 298 298 298 296 296 296 296 297 299 301 301 300 300 300 300 300 300 300 300 300 300 301 301 301 300 299 300 301 305 311 314 318 317 318 323 322 322
299 298 302 302 299 298 299 299 297 296 296 300 299 299 299 298 299 299 299 299 300 300 300 300 300 300 300 301 301 301 299 299 299 300 300 304 309 313 317 318 320 321 321 322
297 297 298 299 300 301 298 299 299 298 297 300 300 299 298 298 296 295 298 300 300 300 300 300 300 300 300 301 300 300 300 299 300 299 300 303 309 313 316 318 320 320 320 321
293 294 299 301 302 298 298 299 299 297 296 299 299 299 298 296 297 298 299 300 301 301 301 301 301 301 301 301 300 300 299 300 299 298 300 303 309 312 316 318 319 319 318 318
298 297 293 298 300 299 298 299 297 296 298 298 298 299 299 298 298 298 300 301 300 299 299 299 300 300 300 299 299 299 299 298 299 298 299 303 308 312 315 317 319 319 319 317
294 299 298 298 298 297 298 299 299 298 298 298 298 299 299 298 298 301 300 298 298 297 298 299 299 299 298 298 299 298 298 299 298 298 300 303 309 312 315 314 318 318 319 319
293 297 298 298 298 298 298 298 299 299 297 298 298 298 298 298 300 299 298 298 298 297 298 299 298 297 298 299 298 298 298 298 298 298 300 303 309 311 314 317 317 316 318 317
293 294 294 296 297 297 299 299 297 298 297 298 297 297 298 300 299 298 299 298 297 297 298 298 297 298 298 298 298 298 298 298 298 298 300 305 310 310 314 316 317 316 317 317
293 293 293 295 295 297 298 299 298 297 297 297 296 297 299 299 299 299 298 297 297 298 298 298 298 298 298 298 298 299 300 300 299 299 303 308 309 311 313 315 313 313 315 315
Wind_Speed
2 3 5 8 6 6 5 5 8 5 7 6 8 12 6 11 14 17 22 23 7 15 12 10 5 2 4 5 6 7 8 14 14 12 17 20 24 29 29 28 30 31 30 32
5 5 7 7 7 5 6 8 8 6 3 6 8 17 8 6 4 6 12 10 16 15 15 13 11 9 11 11 10 12 10 12 16 16 16 19 21 20 24 33 30 33 33 32
4 6 9 2 4 6 3 7 6 8 5 5 7 8 4 3 16 9 17 22 20 19 19 17 17 16 15 18 19 17 15 14 15 17 17 17 18 17 17 21 29 35 36 37
5 4 7 9 5 6 5 7 5 8 7 6 4 13 13 6 2 11 19 22 20 20 19 19 19 19 20 22 22 21 20 17 16 17 18 19 20 22 19 16 24 28 30 34
6 6 7 5 4 4 3 6 6 6 6 4 3 4 5 7 6 5 10 18 20 21 22 23 23 23 22 22 25 28 24 20 19 17 20 19 21 18 18 17 19 25 22 26
5 12 4 1 1 8 6 9 7 4 1 3 1 2 4 3 1 3 5 13 17 20 23 23 22 20 21 22 25 30 30 27 21 20 21 21 18 23 14 13 15 15 20 21
6 3 4 8 2 5 9 7 6 5 3 8 8 9 6 5 6 3 5 16 18 18 20 21 22 23 23 27 25 35 32 32 23 22 21 25 17 20 13 15 13 13 18 20
2 5 3 5 3 3 3 4 3 6 3 12 8 6 3 2 12 11 13 16 24 24 20 18 20 23 25 26 25 24 33 29 24 21 24 24 19 17 12 17 13 10 15 17
6 4 7 8 4 5 4 1 3 5 9 5 5 4 2 1 7 11 13 15 14 16 19 24 24 28 28 22 20 20 22 25 22 21 23 24 18 15 12 19 13 12 14 19
3 7 2 2 5 4 2 4 4 3 5 7 5 5 3 5 11 8 8 14 14 13 9 16 23 24 19 19 19 18 17 19 21 17 21 23 17 16 12 14 15 12 15 14
3 1 4 3 3 8 5 4 3 2 2 6 7 5 3 5 6 6 11 16 12 8 15 19 25 20 19 17 17 17 18 18 18 18 20 22 17 13 11 11 9 16 19 21
2 2 4 6 9 6 4 0 3 1 7 4 5 14 5 6 5 6 11 13 10 7 9 15 23 20 19 19 20 22 22 21 21 22 24 21 19 15 8 8 9 13 13 19
3 2 4 9 5 4 1 2 4 3 1 13 7 8 6 7 9 17 15 14 13 7 7 12 17 19 21 20 20 23 27 28 24 23 23 23 22 17 12 16 11 14 21 22
0 2 7 8 11 2 14 12 13 6 4 9 12 18 14 10 13 15 20 19 12 6 8 11 13 15 14 16 18 24 35 31 27 23 22 22 23 16 13 15 10 13 30 23
3 4 5 10 12 12 15 17 22 12 16 8 20 13 18 12 13 11 18 8 8 8 11 12 12 15 13 16 18 23 31 39 34 24 25 21 20 19 8 11 9 13 29 30
3 7 4 22 16 14 19 18 19 18 15 8 15 17 14 24 22 12 7 4 6 9 11 14 12 14 17 19 21 25 31 37 40 32 25 20 19 19 6 5 11 19 22 26
5 4 8 19 8 7 8 10 8 5 6 5 5 7 5 2 1 1 1 2 9 14 15 18 15 17 21 21 23 27 31 36 38 39 27 19 18 18 12 7 13 21 25 25
6 5 5 8 2 5 6 7 10 10 6 6 6 6 5 1 3 3 6 10 16 20 21 20 20 23 22 19 20 24 30 36 39 40 28 18 16 17 9 3 14 23 24 24
15 4 3 3 3 7 8 6 2 3 4 3 1 3 4 3 2 2 11 11 16 21 24 23 23 24 20 19 21 27 30 34 39 38 28 19 15 16 8 7 12 17 22 26
3 3 4 2 3 5 3 1 3 2 3 2 0 3 2 3 3 4 13 16 20 22 21 18 17 18 18 19 24 29 32 36 37 35 25 18 13 16 9 5 14 19 20 29
3 3 8 9 6 6 6 11 2 1 5 4 5 1 2 2 4 11 14 19 19 17 18 21 21 20 21 24 27 29 35 37 31 31 24 15 11 15 8 9 19 18 19 28
4 4 2 2 3 4 7 3 3 6 8 5 4 4 4 5 8 11 15 16 17 19 20 21 23 24 25 27 29 38 35 29 28 29 22 13 10 9 7 12 25 21 29 35
4 3 3 4 5 12 25 16 20 21 19 11 6 6 5 8 10 11 14 17 20 21 22 22 23 25 25 32 36 33 28 25 26 24 19 12 7 6 18 14 25 30 30 32
5 6 3 5 5 12 31 33 30 27 24 15 9 7 5 7 7 11 15 19 23 23 24 25 27 27 34 36 35 28 27 26 23 21 15 10 5 9 25 22 29 24 30 34
9 6 8 12 19 24 19 15 26 23 9 9 6 3 2 6 9 12 17 22 24 24 25 28 29 33 43 40 33 30 27 20 18 18 14 11 5 13 25 26 21 24 28 27
15 13 6 7 16 13 21 24 22 6 3 4 2 2 5 7 9 14 18 22 24 25 28 30 33 47 43 42 39 27 15 12 17 19 17 12 16 20 27 26 28 29 27 28
Wind_Direction
345 52 237 247 211 228 242 240 250 257 262 293 284 288 294 290 286 290 293 306 180 128 107 93 94 35 345 349 348 345 338 355 346 326 305 289 274 258 255 260 244 248 254 246
16 256 258 258 266 264 278 290 286 279 301 326 292 291 266 259 282 317 351 93 107 96 79 69 57 39 30 23 18 13 4 353 358 351 336 320 304 289 266 249 252 246 250 249
174 260 331 4 333 308 274 279 295 295 327 246 300 296 108 303 293 44 81 97 87 69 57 46 35 28 17 12 7 3 4 1 350 347 349 328 310 299 284 263 247 250 246 250
268 315 6 349 340 333 328 347 315 306 351 303 77 295 309 258 348 66 71 78 69 56 48 39 27 18 13 6 355 349 344 345 348 340 337 347 344 318 307 294 251 255 245 247
265 328 339 36 347 351 332 342 319 280 273 318 232 255 294 26 46 51 45 44 41 36 28 21 18 14 9 360 354 349 338 333 333 342 340 329 342 332 298 301 273 257 251 242
249 311 48 53 316 67 312 347 322 332 9 284 51 33 287 332 170 110 29 28 26 22 17 4 345 343 345 350 347 346 345 337 333 331 340 334 336 343 313 311 304 269 248 241
336 344 146 38 29 358 11 20 339 323 4 270 341 333 279 60 58 103 40 40 27 15 5 1 4 1 337 319 322 334 336 334 339 329 333 336 335 350 328 327 301 264 244 240
12 321 14 351 74 291 271 114 177 276 253 295 310 251 205 66 61 47 36 18 13 8 6 359 349 344 335 331 326 317 322 330 339 339 332 332 340 349 339 331 295 273 241 240
353 274 330 51 350 32 311 198 242 262 280 273 233 276 181 134 27 4 355 356 1 356 357 340 337 340 337 345 337 334 330 334 336 341 336 333 339 344 341 334 314 256 234 227
322 293 319 336 4 8 67 265 317 256 268 277 277 271 291 14 347 316 331 335 322 322 337 331 341 345 349 356 349 348 347 340 338 343 341 338 343 347 347 341 333 213 205 214
20 194 287 21 56 290 328 313 302 300 257 285 300 266 184 187 227 306 304 308 302 329 336 336 343 340 355 3 9 358 350 347 354 355 344 345 348 345 340 341 337 194 162 155
341 266 287 263 264 274 217 186 89 182 293 266 263 280 226 188 206 273 304 316 285 300 319 337 349 339 342 357 8 3 358 356 347 341 343 343 346 320 304 320 294 219 189 170
337 298 336 320 351 360 338 220 248 216 143 266 264 278 212 231 255 277 262 273 262 292 313 335 348 350 349 351 355 356 357 359 344 330 329 332 339 331 316 307 276 233 199 170
356 240 191 251 262 243 293 282 283 203 247 276 256 276 271 260 270 264 271 282 247 289 307 320 335 347 353 347 352 357 3 348 335 335 333 327 331 326 318 325 254 243 195 180
114 243 240 255 266 275 267 277 282 265 252 241 279 268 275 269 269 268 288 253 241 298 323 315 322 340 340 336 335 341 347 356 350 330 331 335 328 326 305 321 258 217 190 196
210 267 286 288 286 274 277 268 263 266 269 245 262 276 276 272 277 267 275 251 288 329 328 326 312 329 325 324 326 329 339 344 349 341 326 329 324 331 322 348 255 183 171 173
209 242 275 274 293 300 281 245 246 261 238 216 263 262 303 5 104 28 49 295 300 312 324 328 309 316 326 323 321 324 328 335 339 345 325 321 327 330 337 334 270 176 162 160
228 178 241 273 326 256 241 277 251 245 265 281 290 295 291 11 119 82 28 354 339 338 325 322 318 314 312 307 308 317 324 330 333 341 325 314 322 330 307 261 232 161 161 165
209 169 260 255 201 295 296 298 283 192 290 315 106 351 5 37 197 73 5 345 339 332 326 319 318 318 293 292 308 317 324 329 330 334 321 312 313 326 320 272 167 157 166 171
44 184 174 181 249 252 252 316 349 75 283 262 195 16 33 32 15 265 341 345 340 335 332 332 326 322 292 300 315 320 322 326 327 326 314 311 309 312 318 261 148 135 138 146
318 308 229 244 253 286 265 303 319 86 243 315 332 306 150 196 232 320 340 341 340 335 336 331 326 322 317 318 321 318 319 319 320 316 305 300 302 322 286 228 156 153 145 159
282 325 291 276 243 263 320 301 335 297 304 296 326 224 277 312 328 336 342 341 339 333 330 327 323 321 318 318 320 317 312 315 312 309 297 284 296 323 169 227 184 184 157 147
280 206 294 193 259 296 312 299 311 306 293 262 261 260 280 320 338 340 338 335 334 332 332 333 324 317 317 322 323 312 306 303 305 296 287 268 290 234 185 165 164 161 158 153
288 285 260 318 256 279 299 301 299 303 300 259 258 274 299 327 336 334 333 335 336 334 333 331 326 319 319 320 313 305 298 299 293 276 265 241 278 193 191 183 180 167 165 157
246 300 265 271 279 287 291 322 330 313 283 220 260 249 309 327 331 337 335 334 334 334 334 332 330 326 320 319 316 308 299 286 261 255 228 199 170 190 177 171 166 158 157 168
242 248 229 255 266 271 277 304 315 338 285 287 261 290 312 322 337 337 334 334 336 337 337 340 340 327 326 324 318 316 296 235 227 220 185 159 172 187 171 163 161 165 170 172